Year,Month,Day,Hour,Minute,Value (Times are PST for temperature in C)
2016,01,20,00,00,5.50
2016,01,20,00,01,5.40
2016,01,20,00,02,5.40
2016,01,20,00,03,5.40
2016,01,20,00,04,5.40
2016,01,20,00,05,5.40
2016,01,20,00,06,5.40
2016,01,20,00,07,5.40
2016,01,20,00,08,5.30
2016,01,20,00,09,5.30
2016,01,20,00,10,5.30
2016,01,20,00,11,5.30
2016,01,20,00,12,5.30
2016,01,20,00,13,5.30
2016,01,20,00,14,5.30
2016,01,20,00,15,5.30
2016,01,20,00,16,5.30
2016,01,20,00,17,5.30
2016,01,20,00,18,5.30
2016,01,20,00,19,5.30
2016,01,20,00,20,5.20
2016,01,20,00,21,5.20
2016,01,20,00,22,5.20
2016,01,20,00,23,5.20
2016,01,20,00,24,5.20
2016,01,20,00,25,5.10
2016,01,20,00,26,5.10
2016,01,20,00,27,5.10
2016,01,20,00,28,5.10
2016,01,20,00,29,5.10
2016,01,20,00,30,5.10
2016,01,20,00,31,5.10
2016,01,20,00,32,5.10
2016,01,20,00,33,5.10
2016,01,20,00,34,5.10
2016,01,20,00,35,5.00
2016,01,20,00,36,5.00
2016,01,20,00,37,5.00
2016,01,20,00,38,5.00
2016,01,20,00,39,5.00
2016,01,20,00,40,5.00
2016,01,20,00,41,5.00
2016,01,20,00,42,5.00
2016,01,20,00,43,5.00
2016,01,20,00,44,4.90
2016,01,20,00,45,4.90
2016,01,20,00,46,4.90
2016,01,20,00,47,4.90
2016,01,20,00,48,4.90
2016,01,20,00,49,4.90
2016,01,20,00,50,4.90
2016,01,20,00,51,4.90
2016,01,20,00,52,4.90
2016,01,20,00,53,4.80
2016,01,20,00,54,4.80
2016,01,20,00,55,4.80
2016,01,20,00,56,4.80
2016,01,20,00,57,4.80
2016,01,20,00,58,4.80
2016,01,20,00,59,4.80
2016,01,20,01,00,4.80
2016,01,20,01,01,4.80
2016,01,20,01,02,4.80
2016,01,20,01,03,4.80
2016,01,20,01,04,4.90
2016,01,20,01,05,4.90
2016,01,20,01,06,4.90
2016,01,20,01,07,4.90
2016,01,20,01,08,4.90
2016,01,20,01,09,4.80
2016,01,20,01,10,4.80
2016,01,20,01,11,4.80
2016,01,20,01,12,4.80
2016,01,20,01,13,4.80
2016,01,20,01,14,4.80
2016,01,20,01,15,4.80
2016,01,20,01,16,4.70
2016,01,20,01,17,4.70
2016,01,20,01,18,4.70
2016,01,20,01,19,4.70
2016,01,20,01,20,4.70
2016,01,20,01,21,4.70
2016,01,20,01,22,4.70
2016,01,20,01,23,4.70
2016,01,20,01,24,4.70
2016,01,20,01,25,4.70
2016,01,20,01,26,4.70
2016,01,20,01,27,4.60
2016,01,20,01,28,4.60
2016,01,20,01,29,4.60
2016,01,20,01,30,4.60
2016,01,20,01,31,4.50
2016,01,20,01,32,4.50
2016,01,20,01,33,4.40
2016,01,20,01,34,4.40
2016,01,20,01,35,4.30
2016,01,20,01,36,4.30
2016,01,20,01,37,4.20
2016,01,20,01,38,4.20
2016,01,20,01,39,4.20
2016,01,20,01,40,4.20
2016,01,20,01,41,4.20
2016,01,20,01,42,4.20
2016,01,20,01,43,4.20
2016,01,20,01,44,4.30
2016,01,20,01,45,4.30
2016,01,20,01,46,4.20
2016,01,20,01,47,4.30
2016,01,20,01,48,4.30
2016,01,20,01,49,4.20
2016,01,20,01,50,4.20
2016,01,20,01,51,4.20
2016,01,20,01,52,4.20
2016,01,20,01,53,4.20
2016,01,20,01,54,4.20
2016,01,20,01,55,4.20
2016,01,20,01,56,4.20
2016,01,20,01,57,4.20
2016,01,20,01,58,4.20
2016,01,20,01,59,4.10
2016,01,20,02,00,4.10
2016,01,20,02,01,4.10
2016,01,20,02,02,4.10
2016,01,20,02,03,4.10
2016,01,20,02,04,4.10
2016,01,20,02,05,4.10
2016,01,20,02,06,4.10
2016,01,20,02,07,4.20
2016,01,20,02,08,4.20
2016,01,20,02,09,4.10
2016,01,20,02,10,4.20
2016,01,20,02,11,4.20
2016,01,20,02,12,4.20
2016,01,20,02,13,4.20
2016,01,20,02,14,4.20
2016,01,20,02,15,4.20
2016,01,20,02,16,4.10
2016,01,20,02,17,4.10
2016,01,20,02,18,4.10
2016,01,20,02,19,4.10
2016,01,20,02,20,4.10
2016,01,20,02,21,4.10
2016,01,20,02,22,4.10
2016,01,20,02,23,4.10
2016,01,20,02,24,4.10
2016,01,20,02,25,4.10
2016,01,20,02,26,4.10
2016,01,20,02,27,4.10
2016,01,20,02,28,4.00
2016,01,20,02,29,4.00
2016,01,20,02,30,4.00
2016,01,20,02,31,4.00
2016,01,20,02,32,4.00
2016,01,20,02,33,4.00
2016,01,20,02,34,4.00
2016,01,20,02,35,4.00
2016,01,20,02,36,4.00
2016,01,20,02,37,4.00
2016,01,20,02,38,4.00
2016,01,20,02,39,4.00
2016,01,20,02,40,4.00
2016,01,20,02,41,4.00
2016,01,20,02,42,4.00
2016,01,20,02,43,4.00
2016,01,20,02,44,4.00
2016,01,20,02,45,4.00
2016,01,20,02,46,4.00
2016,01,20,02,47,4.00
2016,01,20,02,48,3.90
2016,01,20,02,49,3.90
2016,01,20,02,50,3.90
2016,01,20,02,51,3.90
2016,01,20,02,52,3.90
2016,01,20,02,53,3.90
2016,01,20,02,54,3.90
2016,01,20,02,55,3.90
2016,01,20,02,56,3.90
2016,01,20,02,57,3.80
2016,01,20,02,58,3.90
2016,01,20,02,59,3.80
2016,01,20,03,00,3.80
2016,01,20,03,01,3.80
2016,01,20,03,02,3.80
2016,01,20,03,03,3.80
2016,01,20,03,04,3.80
2016,01,20,03,05,3.80
2016,01,20,03,06,3.70
2016,01,20,03,07,3.70
2016,01,20,03,08,3.70
2016,01,20,03,09,3.70
2016,01,20,03,10,3.70
2016,01,20,03,11,3.70
2016,01,20,03,12,3.70
2016,01,20,03,13,3.70
2016,01,20,03,14,3.70
2016,01,20,03,15,3.70
2016,01,20,03,16,3.80
2016,01,20,03,17,3.80
2016,01,20,03,18,3.80
2016,01,20,03,19,3.80
2016,01,20,03,20,3.80
2016,01,20,03,21,3.80
2016,01,20,03,22,3.80
2016,01,20,03,23,3.80
2016,01,20,03,24,3.80
2016,01,20,03,25,3.70
2016,01,20,03,26,3.70
2016,01,20,03,27,3.70
2016,01,20,03,28,3.70
2016,01,20,03,29,3.80
2016,01,20,03,30,3.80
2016,01,20,03,31,3.80
2016,01,20,03,32,3.80
2016,01,20,03,33,3.80
2016,01,20,03,34,3.80
2016,01,20,03,35,3.80
2016,01,20,03,36,3.80
2016,01,20,03,37,3.90
2016,01,20,03,38,3.90
2016,01,20,03,39,3.90
2016,01,20,03,40,3.90
2016,01,20,03,41,3.80
2016,01,20,03,42,3.90
2016,01,20,03,43,3.90
2016,01,20,03,44,3.90
2016,01,20,03,45,3.90
2016,01,20,03,46,3.90
2016,01,20,03,47,3.90
2016,01,20,03,48,3.90
2016,01,20,03,49,3.90
2016,01,20,03,50,3.90
2016,01,20,03,51,3.90
2016,01,20,03,52,4.00
2016,01,20,03,53,4.00
2016,01,20,03,54,4.00
2016,01,20,03,55,4.00
2016,01,20,03,56,4.00
2016,01,20,03,57,4.00
2016,01,20,03,58,4.00
2016,01,20,03,59,4.00
2016,01,20,04,00,4.10
2016,01,20,04,01,4.10
2016,01,20,04,02,4.10
2016,01,20,04,03,4.10
2016,01,20,04,04,4.10
2016,01,20,04,05,4.10
2016,01,20,04,06,4.20
2016,01,20,04,07,4.20
2016,01,20,04,08,4.20
2016,01,20,04,09,4.20
2016,01,20,04,10,4.30
2016,01,20,04,11,4.30
2016,01,20,04,12,4.30
2016,01,20,04,13,4.30
2016,01,20,04,14,4.30
2016,01,20,04,15,4.40
2016,01,20,04,16,4.40
2016,01,20,04,17,4.40
2016,01,20,04,18,4.40
2016,01,20,04,19,4.40
2016,01,20,04,20,4.40
2016,01,20,04,21,4.50
2016,01,20,04,22,4.50
2016,01,20,04,23,4.60
2016,01,20,04,24,4.60
2016,01,20,04,25,4.60
2016,01,20,04,26,4.60
2016,01,20,04,27,4.60
2016,01,20,04,28,4.60
2016,01,20,04,29,4.60
2016,01,20,04,30,4.70
2016,01,20,04,31,4.70
2016,01,20,04,32,4.60
2016,01,20,04,33,4.60
2016,01,20,04,34,4.60
2016,01,20,04,35,4.60
2016,01,20,04,36,4.60
2016,01,20,04,37,4.60
2016,01,20,04,38,4.60
2016,01,20,04,39,4.60
2016,01,20,04,40,4.60
2016,01,20,04,41,4.60
2016,01,20,04,42,4.60
2016,01,20,04,43,4.60
2016,01,20,04,44,4.60
2016,01,20,04,45,4.60
2016,01,20,04,46,4.60
2016,01,20,04,47,4.60
2016,01,20,04,48,4.60
2016,01,20,04,49,4.60
2016,01,20,04,50,4.60
2016,01,20,04,51,4.60
2016,01,20,04,52,4.60
2016,01,20,04,53,4.60
2016,01,20,04,54,4.60
2016,01,20,04,55,4.60
2016,01,20,04,56,4.60
2016,01,20,04,57,4.60
2016,01,20,04,58,4.60
2016,01,20,04,59,4.60
2016,01,20,05,00,4.70
2016,01,20,05,01,4.70
2016,01,20,05,02,4.70
2016,01,20,05,03,4.70
2016,01,20,05,04,4.70
2016,01,20,05,05,4.80
2016,01,20,05,06,4.80
2016,01,20,05,07,4.80
2016,01,20,05,08,4.80
2016,01,20,05,09,4.80
2016,01,20,05,10,4.90
2016,01,20,05,11,4.90
2016,01,20,05,12,4.90
2016,01,20,05,13,4.90
2016,01,20,05,14,4.90
2016,01,20,05,15,4.90
2016,01,20,05,16,4.90
2016,01,20,05,17,4.90
2016,01,20,05,18,5.00
2016,01,20,05,19,5.00
2016,01,20,05,20,4.90
2016,01,20,05,21,4.90
2016,01,20,05,22,5.00
2016,01,20,05,23,5.00
2016,01,20,05,24,5.00
2016,01,20,05,25,5.00
2016,01,20,05,26,5.00
2016,01,20,05,27,5.00
2016,01,20,05,28,5.00
2016,01,20,05,29,5.00
2016,01,20,05,30,5.00
2016,01,20,05,31,5.00
2016,01,20,05,32,5.00
2016,01,20,05,33,5.00
2016,01,20,05,34,5.00
2016,01,20,05,35,5.00
2016,01,20,05,36,5.00
2016,01,20,05,37,5.00
2016,01,20,05,38,5.00
2016,01,20,05,39,4.90
2016,01,20,05,40,4.90
2016,01,20,05,41,4.90
2016,01,20,05,42,4.90
2016,01,20,05,43,4.90
2016,01,20,05,44,4.90
2016,01,20,05,45,4.80
2016,01,20,05,46,4.80
2016,01,20,05,47,4.80
2016,01,20,05,48,4.80
2016,01,20,05,49,4.80
2016,01,20,05,50,4.70
2016,01,20,05,51,4.70
2016,01,20,05,52,4.70
2016,01,20,05,53,4.70
2016,01,20,05,54,4.60
2016,01,20,05,55,4.60
2016,01,20,05,56,4.60
2016,01,20,05,57,4.60
2016,01,20,05,58,4.60
2016,01,20,05,59,4.60
2016,01,20,06,00,4.60
2016,01,20,06,01,4.60
2016,01,20,06,02,4.60
2016,01,20,06,03,4.60
2016,01,20,06,04,4.60
2016,01,20,06,05,4.60
2016,01,20,06,06,4.60
2016,01,20,06,07,4.60
2016,01,20,06,08,4.60
2016,01,20,06,09,4.60
2016,01,20,06,10,4.50
2016,01,20,06,11,4.50
2016,01,20,06,12,4.50
2016,01,20,06,13,4.50
2016,01,20,06,14,4.50
2016,01,20,06,15,4.50
2016,01,20,06,16,4.50
2016,01,20,06,17,4.50
2016,01,20,06,18,4.50
2016,01,20,06,19,4.50
2016,01,20,06,20,4.50
2016,01,20,06,21,4.50
2016,01,20,06,22,4.50
2016,01,20,06,23,4.50
2016,01,20,06,24,4.50
2016,01,20,06,25,4.60
2016,01,20,06,26,4.60
2016,01,20,06,27,4.60
2016,01,20,06,28,4.60
2016,01,20,06,29,4.70
2016,01,20,06,30,4.70
2016,01,20,06,31,4.80
2016,01,20,06,32,4.80
2016,01,20,06,33,4.80
2016,01,20,06,34,4.90
2016,01,20,06,35,4.90
2016,01,20,06,36,4.90
2016,01,20,06,37,5.00
2016,01,20,06,38,5.00
2016,01,20,06,39,5.00
2016,01,20,06,40,5.00
2016,01,20,06,41,5.00
2016,01,20,06,42,5.00
2016,01,20,06,43,5.10
2016,01,20,06,44,5.10
2016,01,20,06,45,5.10
2016,01,20,06,46,5.20
2016,01,20,06,47,5.20
2016,01,20,06,48,5.20
2016,01,20,06,49,5.20
2016,01,20,06,50,5.20
2016,01,20,06,51,5.30
2016,01,20,06,52,5.30
2016,01,20,06,53,5.30
2016,01,20,06,54,5.30
2016,01,20,06,55,5.30
2016,01,20,06,56,5.40
2016,01,20,06,57,5.40
2016,01,20,06,58,5.40
2016,01,20,06,59,5.40
2016,01,20,07,00,5.40
2016,01,20,07,01,5.40
2016,01,20,07,02,5.40
2016,01,20,07,03,5.40
2016,01,20,07,04,5.40
2016,01,20,07,05,5.40
2016,01,20,07,06,5.40
2016,01,20,07,07,5.40
2016,01,20,07,08,5.40
2016,01,20,07,09,5.40
2016,01,20,07,10,5.40
2016,01,20,07,11,5.40
2016,01,20,07,12,5.40
2016,01,20,07,13,5.40
2016,01,20,07,14,5.40
2016,01,20,07,15,5.40
2016,01,20,07,16,5.40
2016,01,20,07,17,5.50
2016,01,20,07,18,5.50
2016,01,20,07,19,5.50
2016,01,20,07,20,5.50
2016,01,20,07,21,5.50
2016,01,20,07,22,5.50
2016,01,20,07,23,5.40
2016,01,20,07,24,5.50
2016,01,20,07,25,5.40
2016,01,20,07,26,5.40
2016,01,20,07,27,5.40
2016,01,20,07,28,5.40
2016,01,20,07,29,5.40
2016,01,20,07,30,5.40
2016,01,20,07,31,5.40
2016,01,20,07,32,5.40
2016,01,20,07,33,5.40
2016,01,20,07,34,5.40
2016,01,20,07,35,5.40
2016,01,20,07,36,5.40
2016,01,20,07,37,5.40
2016,01,20,07,38,5.40
2016,01,20,07,39,5.40
2016,01,20,07,40,5.40
2016,01,20,07,41,5.40
2016,01,20,07,42,5.40
2016,01,20,07,43,5.40
2016,01,20,07,44,5.40
2016,01,20,07,45,5.40
2016,01,20,07,46,5.40
2016,01,20,07,47,5.40
2016,01,20,07,48,5.40
2016,01,20,07,49,5.40
2016,01,20,07,50,5.40
2016,01,20,07,51,5.40
2016,01,20,07,52,5.50
2016,01,20,07,53,5.50
2016,01,20,07,54,5.50
2016,01,20,07,55,5.50
2016,01,20,07,56,5.50
2016,01,20,07,57,5.50
2016,01,20,07,58,5.50
2016,01,20,07,59,5.50
2016,01,20,08,00,5.50
2016,01,20,08,01,5.50
2016,01,20,08,02,5.50
2016,01,20,08,03,5.60
2016,01,20,08,04,5.60
2016,01,20,08,05,5.60
2016,01,20,08,06,5.60
2016,01,20,08,07,5.60
2016,01,20,08,08,5.60
2016,01,20,08,09,5.60
2016,01,20,08,10,5.60
2016,01,20,08,11,5.60
2016,01,20,08,12,5.60
2016,01,20,08,13,5.60
2016,01,20,08,14,5.60
2016,01,20,08,15,5.60
2016,01,20,08,16,5.60
2016,01,20,08,17,5.60
2016,01,20,08,18,5.60
2016,01,20,08,19,5.60
2016,01,20,08,20,5.60
2016,01,20,08,21,5.60
2016,01,20,08,22,5.60
2016,01,20,08,23,5.60
2016,01,20,08,24,5.60
2016,01,20,08,25,5.60
2016,01,20,08,26,5.60
2016,01,20,08,27,5.60
2016,01,20,08,28,5.60
2016,01,20,08,29,5.60
2016,01,20,08,30,5.60
2016,01,20,08,31,5.60
2016,01,20,08,32,5.60
2016,01,20,08,33,5.60
2016,01,20,08,34,5.60
2016,01,20,08,35,5.60
2016,01,20,08,36,5.60
2016,01,20,08,37,5.60
2016,01,20,17,30,7.50
2016,01,20,17,31,7.50
2016,01,20,17,32,7.50
2016,01,20,17,33,7.50
2016,01,20,17,34,7.50
2016,01,20,17,35,7.60
2016,01,20,17,36,7.60
2016,01,20,17,37,7.60
2016,01,20,17,38,7.60
2016,01,20,17,39,7.60
2016,01,20,17,40,7.60
2016,01,20,17,41,7.60
2016,01,20,17,42,7.60
2016,01,20,17,43,7.60
2016,01,20,17,44,7.60
2016,01,20,17,45,7.70
2016,01,20,17,46,7.70
2016,01,20,17,47,7.70
2016,01,20,17,48,7.70
2016,01,20,17,49,7.70
2016,01,20,17,50,7.70
2016,01,20,17,51,7.80
2016,01,20,17,52,7.80
2016,01,20,17,53,7.80
2016,01,20,17,54,7.80
2016,01,20,17,55,7.80
2016,01,20,17,56,7.80
2016,01,20,17,57,7.80
2016,01,20,17,58,7.80
2016,01,20,17,59,7.80
2016,01,20,18,00,7.80
2016,01,20,18,01,7.80
2016,01,20,18,02,7.80
2016,01,20,18,03,7.80
2016,01,20,18,04,7.80
2016,01,20,18,05,7.80
2016,01,20,18,06,7.80
2016,01,20,18,07,7.80
2016,01,20,18,08,7.80
2016,01,20,18,09,7.80
2016,01,20,18,10,7.80
2016,01,20,18,11,7.80
2016,01,20,18,12,7.80
2016,01,20,18,13,7.80
2016,01,20,18,14,7.80
2016,01,20,18,15,7.80
2016,01,20,18,16,7.80
2016,01,20,18,17,7.80
2016,01,20,18,18,7.80
2016,01,20,18,19,7.80
2016,01,20,18,20,7.80
2016,01,20,18,21,7.80
2016,01,20,18,22,7.80
2016,01,20,18,23,7.80
2016,01,20,18,24,7.90
2016,01,20,18,25,7.90
2016,01,20,18,26,7.90
2016,01,20,18,27,7.90
2016,01,20,18,28,7.90
2016,01,20,18,29,7.90
2016,01,20,18,30,7.90
2016,01,20,18,31,7.90
2016,01,20,18,32,7.90
2016,01,20,18,33,7.90
2016,01,20,18,34,7.90
2016,01,20,18,35,7.90
2016,01,20,18,36,7.90
2016,01,20,18,37,7.90
2016,01,20,18,38,7.90
2016,01,20,18,39,7.90
2016,01,20,18,40,7.90
2016,01,20,18,41,7.90
2016,01,20,18,42,7.90
2016,01,20,18,43,7.90
2016,01,20,18,44,7.90
2016,01,20,18,45,7.90
2016,01,20,18,46,7.90
2016,01,20,18,47,7.90
2016,01,20,18,48,7.80
2016,01,20,18,49,7.80
2016,01,20,18,50,7.80
2016,01,20,18,51,7.80
2016,01,20,18,52,7.80
2016,01,20,18,53,7.80
2016,01,20,18,54,7.80
2016,01,20,18,55,7.70
2016,01,20,18,56,7.70
2016,01,20,18,57,7.70
2016,01,20,18,58,7.70
2016,01,20,18,59,7.70
2016,01,20,19,00,7.70
2016,01,20,19,01,7.70
2016,01,20,19,02,7.70
2016,01,20,19,03,7.70
2016,01,20,19,04,7.70
2016,01,20,19,05,7.60
2016,01,20,19,06,7.60
2016,01,20,19,07,7.60
2016,01,20,19,08,7.60
2016,01,20,19,09,7.60
2016,01,20,19,10,7.60
2016,01,20,19,11,7.60
2016,01,20,19,12,7.60
2016,01,20,19,13,7.60
2016,01,20,19,14,7.60
2016,01,20,19,15,7.60
2016,01,20,19,16,7.60
2016,01,20,19,17,7.60
2016,01,20,19,18,7.60
2016,01,20,19,19,7.60
2016,01,20,19,20,7.60
2016,01,20,19,21,7.60
2016,01,20,19,22,7.60
2016,01,20,19,23,7.60
2016,01,20,19,24,7.60
2016,01,20,19,25,7.60
2016,01,20,19,26,7.60
2016,01,20,19,27,7.60
2016,01,20,19,28,7.60
2016,01,20,19,29,7.60
2016,01,20,19,30,7.60
2016,01,20,19,31,7.60
2016,01,20,19,32,7.60
2016,01,20,19,33,7.60
2016,01,20,19,34,7.60
2016,01,20,19,35,7.60
2016,01,20,19,36,7.60
2016,01,20,19,37,7.60
2016,01,20,19,38,7.60
2016,01,20,19,39,7.60
2016,01,20,19,40,7.60
2016,01,20,19,41,7.60
2016,01,20,19,42,7.50
2016,01,20,19,43,7.50
2016,01,20,19,44,7.50
2016,01,20,19,45,7.50
2016,01,20,19,46,7.50
2016,01,20,19,47,7.50
2016,01,20,19,48,7.40
2016,01,20,19,49,7.40
2016,01,20,19,50,7.40
2016,01,20,19,51,7.40
2016,01,20,19,52,7.40
2016,01,20,19,53,7.40
2016,01,20,19,54,7.40
2016,01,20,19,55,7.40
2016,01,20,19,56,7.40
2016,01,20,19,57,7.40
2016,01,20,19,58,7.40
2016,01,20,19,59,7.40
2016,01,20,20,00,7.40
2016,01,20,20,01,7.40
2016,01,20,20,02,7.50
2016,01,20,20,03,7.50
2016,01,20,20,04,7.50
2016,01,20,20,05,7.50
2016,01,20,20,06,7.50
2016,01,20,20,07,7.50
2016,01,20,20,08,7.50
2016,01,20,20,09,7.50
2016,01,20,20,10,7.60
2016,01,20,20,11,7.60
2016,01,20,20,12,7.60
2016,01,20,20,13,7.60
2016,01,20,20,14,7.60
2016,01,20,20,15,7.60
2016,01,20,20,16,7.60
2016,01,20,20,17,7.60
2016,01,20,20,18,7.60
2016,01,20,20,19,7.60
2016,01,20,20,20,7.60
2016,01,20,20,21,7.60
2016,01,20,20,22,7.60
2016,01,20,20,23,7.50
2016,01,20,20,24,7.50
2016,01,20,20,25,7.40
2016,01,20,20,26,7.40
2016,01,20,20,27,7.40
2016,01,20,20,28,7.30
2016,01,20,20,29,7.30
2016,01,20,20,30,7.30
2016,01,20,20,31,7.30
2016,01,20,20,32,7.30
2016,01,20,20,33,7.30
2016,01,20,20,34,7.20
2016,01,20,20,35,7.20
2016,01,20,20,36,7.20
2016,01,20,20,37,7.20
2016,01,20,20,38,7.20
2016,01,20,20,39,7.20
2016,01,20,20,40,7.10
2016,01,20,20,41,7.10
2016,01,20,20,42,7.10
2016,01,20,20,43,7.10
2016,01,20,20,44,7.10
2016,01,20,20,45,7.10
2016,01,20,20,46,7.10
2016,01,20,20,47,7.00
2016,01,20,20,48,7.00
2016,01,20,20,49,7.00
2016,01,20,20,50,6.90
2016,01,20,20,51,6.90
2016,01,20,20,52,6.90
2016,01,20,20,53,6.80
2016,01,20,20,54,6.80
2016,01,20,20,55,6.80
2016,01,20,20,56,6.80
2016,01,20,20,57,6.70
2016,01,20,20,58,6.70
2016,01,20,20,59,6.70
2016,01,20,21,00,6.60
2016,01,20,21,01,6.60
2016,01,20,21,02,6.60
2016,01,20,21,03,6.60
2016,01,20,21,04,6.60
2016,01,20,21,05,6.60
2016,01,20,21,06,6.50
2016,01,20,21,07,6.50
2016,01,20,21,08,6.50
2016,01,20,21,09,6.50
2016,01,20,21,10,6.50
2016,01,20,21,11,6.50
2016,01,20,21,12,6.40
2016,01,20,21,13,6.40
2016,01,20,21,14,6.40
2016,01,20,21,15,6.40
2016,01,20,21,16,6.40
2016,01,20,21,17,6.40
2016,01,20,21,18,6.40
2016,01,20,21,19,6.40
2016,01,20,21,20,6.40
2016,01,20,21,21,6.40
2016,01,20,21,22,6.40
2016,01,20,21,23,6.40
2016,01,20,21,24,6.40
2016,01,20,21,25,6.40
2016,01,20,21,26,6.30
2016,01,20,21,27,6.30
2016,01,20,21,28,6.30
2016,01,20,21,29,6.30
2016,01,20,21,30,6.30
2016,01,20,21,31,6.30
2016,01,20,21,32,6.30
2016,01,20,21,33,6.30
2016,01,20,21,34,6.30
2016,01,20,21,35,6.30
2016,01,20,21,36,6.30
2016,01,20,21,37,6.30
2016,01,20,21,38,6.30
2016,01,20,21,39,6.30
2016,01,20,21,40,6.30
2016,01,20,21,41,6.30
2016,01,20,21,42,6.30
2016,01,20,21,43,6.30
2016,01,20,21,44,6.30
2016,01,20,21,45,6.30
2016,01,20,21,46,6.30
2016,01,20,21,47,6.30
2016,01,20,21,48,6.30
2016,01,20,21,49,6.30
2016,01,20,21,50,6.30
2016,01,20,21,51,6.30
2016,01,20,21,52,6.30
2016,01,20,21,53,6.30
2016,01,20,21,54,6.30
2016,01,20,21,55,6.30
2016,01,20,21,56,6.30
2016,01,20,21,57,6.30
2016,01,20,21,58,6.30
2016,01,20,21,59,6.30
2016,01,20,22,00,6.30
2016,01,20,22,01,6.30
2016,01,20,22,02,6.20
2016,01,20,22,03,6.20
2016,01,20,22,04,6.30
2016,01,20,22,05,6.30
2016,01,20,22,06,6.30
2016,01,20,22,07,6.20
2016,01,20,22,08,6.20
2016,01,20,22,09,6.20
2016,01,20,22,10,6.20
2016,01,20,22,11,6.20
2016,01,20,22,12,6.20
2016,01,20,22,13,6.20
2016,01,20,22,14,6.20
2016,01,20,22,15,6.20
2016,01,20,22,16,6.20
2016,01,20,22,17,6.20
2016,01,20,22,18,6.20
2016,01,20,22,19,6.20
2016,01,20,22,20,6.20
2016,01,20,22,21,6.20
2016,01,20,22,22,6.20
2016,01,20,22,23,6.10
2016,01,20,22,24,6.10
2016,01,20,22,25,6.20
2016,01,20,22,26,6.10
2016,01,20,22,27,6.20
2016,01,20,22,28,6.10
2016,01,20,22,29,6.10
2016,01,20,22,30,6.10
2016,01,20,22,31,6.10
2016,01,20,22,32,6.10
2016,01,20,22,33,6.10
2016,01,20,22,34,6.10
2016,01,20,22,35,6.10
2016,01,20,22,36,6.10
2016,01,20,22,37,6.00
2016,01,20,22,38,6.00
2016,01,20,22,39,6.00
2016,01,20,22,40,6.00
2016,01,20,22,41,6.00
2016,01,20,22,42,6.00
2016,01,20,22,43,6.00
2016,01,20,22,44,6.00
2016,01,20,22,45,6.00
2016,01,20,22,46,6.00
2016,01,20,22,47,6.00
2016,01,20,22,48,6.00
2016,01,20,22,49,6.00
2016,01,20,22,50,6.00
2016,01,20,22,51,6.00
2016,01,20,22,52,6.00
2016,01,20,22,53,6.10
2016,01,20,22,54,6.10
2016,01,20,22,55,6.10
2016,01,20,22,56,6.10
2016,01,20,22,57,6.10
2016,01,20,22,58,6.10
2016,01,20,22,59,6.10
2016,01,20,23,00,6.20
2016,01,20,23,01,6.20
2016,01,20,23,02,6.20
2016,01,20,23,03,6.20
2016,01,20,23,04,6.20
2016,01,20,23,05,6.20
2016,01,20,23,06,6.20
2016,01,20,23,07,6.20
2016,01,20,23,08,6.20
2016,01,20,23,09,6.20
2016,01,20,23,10,6.20
2016,01,20,23,11,6.20
2016,01,20,23,12,6.20
2016,01,20,23,13,6.20
2016,01,20,23,14,6.20
2016,01,20,23,15,6.20
2016,01,20,23,16,6.20
2016,01,20,23,17,6.20
2016,01,20,23,18,6.20
2016,01,20,23,19,6.20
2016,01,20,23,20,6.20
2016,01,20,23,21,6.20
2016,01,20,23,22,6.20
2016,01,20,23,23,6.20
2016,01,20,23,24,6.20
2016,01,20,23,25,6.20
2016,01,20,23,26,6.20
2016,01,20,23,27,6.20
2016,01,20,23,28,6.20
2016,01,20,23,29,6.20
2016,01,20,23,30,6.20
2016,01,20,23,31,6.20
2016,01,20,23,32,6.20
2016,01,20,23,33,6.20
2016,01,20,23,34,6.30
2016,01,20,23,35,6.30
2016,01,20,23,36,6.30
2016,01,20,23,37,6.30
2016,01,20,23,38,6.30
2016,01,20,23,39,6.30
2016,01,20,23,40,6.30
2016,01,20,23,41,6.30
2016,01,20,23,42,6.30
2016,01,20,23,43,6.30
2016,01,20,23,44,6.30
2016,01,20,23,45,6.30
2016,01,20,23,46,6.30
2016,01,20,23,47,6.30
2016,01,20,23,48,6.30
2016,01,20,23,49,6.40
2016,01,20,23,50,6.30
2016,01,20,23,51,6.40
2016,01,20,23,52,6.30
2016,01,20,23,53,6.30
2016,01,20,23,54,6.40
2016,01,20,23,55,6.30
2016,01,20,23,56,6.30
2016,01,20,23,57,6.30
2016,01,20,23,58,6.30
2016,01,20,23,59,6.40
